TimeCST,TemperatureF,Dew PointF,Humidity,Sea Level PressureIn,VisibilityMPH,Wind Direction,Wind SpeedMPH,Gust SpeedMPH,PrecipitationIn,Events,Conditions,WindDirDegrees,DateUTC
12:55 AM,53.6,51.8,94,29.34,10.0,SE,8.1,-,N/A,,Overcast,140,2013-02-26 06:55:00
1:55 AM,53.6,51.8,94,29.35,10.0,South,5.8,-,N/A,,Partly Cloudy,180,2013-02-26 07:55:00
2:15 AM,53.6,51.8,94,29.35,10.0,South,6.9,-,N/A,,Scattered Clouds,170,2013-02-26 08:15:00
2:35 AM,51.8,48.2,88,29.35,10.0,SSW,9.2,-,N/A,,Scattered Clouds,210,2013-02-26 08:35:00
2:55 AM,51.8,48.2,88,29.36,10.0,SSW,11.5,-,N/A,,Scattered Clouds,200,2013-02-26 08:55:00
3:15 AM,51.8,48.2,88,29.37,10.0,SW,13.8,-,N/A,,Mostly Cloudy,230,2013-02-26 09:15:00
3:35 AM,48.2,46.4,93,29.37,10.0,SSW,11.5,-,N/A,,Overcast,210,2013-02-26 09:35:00
3:55 AM,48.2,46.4,93,29.38,10.0,SSW,17.3,-,N/A,,Overcast,210,2013-02-26 09:55:00
4:15 AM,48.2,44.6,87,29.38,10.0,South,8.1,-,N/A,,Overcast,190,2013-02-26 10:15:00
4:35 AM,48.2,44.6,87,29.38,10.0,SSW,6.9,-,N/A,,Mostly Cloudy,200,2013-02-26 10:35:00
4:55 AM,48.2,44.6,87,29.38,10.0,SSW,11.5,-,N/A,,Mostly Cloudy,210,2013-02-26 10:55:00
5:55 AM,46.4,42.8,87,29.40,10.0,SSW,13.8,-,N/A,,Overcast,200,2013-02-26 11:55:00
6:55 AM,44.6,41.0,87,29.42,10.0,SSW,10.4,-,N/A,,Overcast,210,2013-02-26 12:55:00
7:55 AM,44.6,39.2,81,29.45,10.0,SW,13.8,-,N/A,,Overcast,220,2013-02-26 13:55:00
8:55 AM,44.6,39.2,81,29.47,10.0,SW,17.3,-,N/A,,Overcast,220,2013-02-26 14:55:00
9:55 AM,44.6,37.4,76,29.48,10.0,SSW,13.8,23.0,N/A,,Overcast,200,2013-02-26 15:55:00
10:55 AM,44.6,37.4,76,29.49,10.0,SSW,15.0,-,N/A,,Overcast,200,2013-02-26 16:55:00
11:55 AM,42.8,39.2,87,29.52,10.0,SW,18.4,-,N/A,,Overcast,220,2013-02-26 17:55:00
12:55 PM,41.0,37.4,87,29.52,10.0,SSW,10.4,-,N/A,Rain,Light Rain,210,2013-02-26 18:55:00
1:55 PM,41.0,37.4,87,29.54,8.0,SW,16.1,-,N/A,Rain,Light Rain,230,2013-02-26 19:55:00
2:55 PM,42.8,37.4,81,29.55,10.0,WSW,17.3,-,N/A,,Overcast,240,2013-02-26 20:55:00
3:55 PM,42.8,35.6,76,29.58,10.0,WSW,21.9,-,N/A,,Overcast,240,2013-02-26 21:55:00
4:55 PM,42.8,35.6,76,29.61,10.0,WSW,23.0,-,N/A,,Overcast,250,2013-02-26 22:55:00
5:55 PM,42.8,35.6,76,29.65,10.0,WSW,19.6,-,N/A,,Overcast,240,2013-02-26 23:55:00
6:55 PM,41.0,33.8,76,29.70,10.0,WSW,20.7,-,N/A,,Overcast,240,2013-02-27 00:55:00
7:55 PM,41.0,35.6,81,29.73,10.0,WSW,16.1,-,N/A,,Overcast,250,2013-02-27 01:55:00
8:55 PM,41.0,35.6,81,29.76,10.0,West,15.0,-,N/A,,Overcast,260,2013-02-27 02:55:00
9:55 PM,41.0,33.8,76,29.78,10.0,WSW,11.5,-,N/A,,Overcast,250,2013-02-27 03:55:00
10:55 PM,41.0,33.8,76,29.80,10.0,West,10.4,-,N/A,,Overcast,260,2013-02-27 04:55:00
11:55 PM,41.0,33.8,76,29.82,10.0,West,15.0,-,N/A,,Overcast,270,2013-02-27 05:55:00